VK3GY-13 Weather Reports


Display with metric or nautical units.
time (UTC)temp
F
wind
direction
speed
MPH
gust
MPH
rain 1hr
in
rain 24hr
in
rain mn
in
humidity
%
barometer
mb
20260903153011 47 309 2.0 5.0 0.00 0.00 0.00 85 1018.1
20260903152011 47 314 2.0 6.0 0.00 0.00 0.00 85 1018.1
20260903151011 47 316 3.0 5.0 0.00 0.00 0.00 85 1018.1
20260903150011 48 305 3.0 5.0 0.00 0.00 0.00 85 1018.2
20260903145010 48 306 3.0 5.0 0.00 0.00 0.00 85 1018.2
20260903144011 48 304 3.0 7.0 0.00 0.00 0.00 85 1018.3
20260903143011 48 312 3.0 8.0 0.00 0.00 0.00 84 1018.1
20260903142011 48 333 1.0 6.0 0.00 0.00 0.00 83 1018.1
20260903141011 48 330 3.0 6.0 0.00 0.00 0.00 83 1018.0
20260903140011 48 302 3.0 8.0 0.00 0.00 0.00 83 1018.1
20260903135011 48 325 2.0 5.0 0.00 0.00 0.00 82 1018.2
20260903134011 48 313 3.0 9.0 0.00 0.00 0.00 82 1018.2
20260903133011 48 312 4.0 9.0 0.00 0.00 0.00 82 1018.1
20260903132011 48 323 2.0 6.0 0.00 0.00 0.00 81 1018.3
20260903131011 48 316 3.0 8.0 0.00 0.00 0.00 80 1018.3
20260903130011 49 318 4.0 8.0 0.00 0.00 0.00 79 1018.3
20260903125012 49 276 2.0 3.0 0.00 0.00 0.00 79 1018.2
20260903124012 50 275 2.0 3.0 0.00 0.00 0.00 78 1018.1
20260903123012 50 275 2.0 3.0 0.00 0.00 0.00 77 1018.1
20260903115011 53 255 4.0 12.0 0.00 0.00 0.00 77 1017.8
20260903113011 53 244 5.0 12.0 0.00 0.00 0.00 78 1017.6
20260903112010 52 251 6.0 12.0 0.00 0.00 0.00 77 1017.5
20260903111010 52 246 2.0 6.0 0.00 0.00 0.00 77 1017.5
20260903110011 52 236 4.0 7.0 0.00 0.00 0.00 76 1017.5
20260903105011 52 238 4.0 9.0 0.00 0.00 0.00 75 1017.4
20260903104011 52 247 2.0 8.0 0.00 0.00 0.00 74 1017.2
20260903103010 53 240 4.0 10.0 0.00 0.00 0.00 74 1016.9
20260903102013 53 233 5.0 10.0 0.00 0.00 0.00 74 1016.8
20260903101011 53 232 5.0 9.0 0.00 0.00 0.00 74 1016.7
20260903100011 53 252 5.0 9.0 0.00 0.00 0.00 74 1016.5
20260903094011 53 247 3.0 6.0 0.00 0.00 0.00 74 1016.2
20260903092013 54 224 4.0 6.0 0.00 0.00 0.00 73 1016.1
20260903091011 54 222 3.0 8.0 0.00 0.00 0.00 72 1015.9
20260903085011 55 258 3.0 10.0 0.00 0.00 0.00 70 1015.6
20260903084011 55 263 3.0 12.0 0.00 0.00 0.00 68 1015.4
20260903083010 56 246 6.0 13.0 0.00 0.00 0.00 68 1015.3
20260903082011 56 243 6.0 13.0 0.00 0.00 0.00 66 1015.1
20260903081011 56 243 8.0 15.0 0.00 0.00 0.00 65 1015.0
20260903080011 56 245 7.0 14.0 0.00 0.00 0.00 64 1014.9
20260903074011 57 233 10.0 18.0 0.00 0.00 0.00 65 1014.6
20260903073011 58 245 7.0 15.0 0.00 0.00 0.00 64 1014.4
20260903071011 59 248 9.0 20.0 0.00 0.00 0.00 64 1014.1
20260903065010 59 248 5.0 17.0 0.00 0.00 0.00 62 1013.7
20260903064011 60 247 10.0 22.0 0.00 0.00 0.00 59 1013.5
20260903063011 61 245 7.0 18.0 0.00 0.00 0.00 56 1013.5
20260903062011 61 255 8.0 17.0 0.00 0.00 0.00 56 1013.3
20260903061011 61 246 11.0 18.0 0.00 0.00 0.00 55 1013.2
20260903060013 62 246 10.0 17.0 0.00 0.00 0.00 55 1013.0
20260903055011 62 239 8.0 17.0 0.00 0.00 0.00 55 1013.0
20260903053011 63 242 9.0 15.0 0.00 0.00 0.00 57 1012.7
20260903052011 63 248 7.0 16.0 0.00 0.00 0.00 59 1012.6
20260903051011 63 235 6.0 14.0 0.00 0.00 0.00 59 1012.5
20260903050012 63 245 9.0 16.0 0.00 0.00 0.00 60 1012.4
20260903045011 63 263 7.0 17.0 0.00 0.00 0.00 61 1012.2
20260903044010 63 243 6.0 15.0 0.00 0.00 0.00 66 1012.1
20260903043010 62 242 7.0 14.0 0.00 0.00 0.00 68 1012.0
20260903042011 61 232 6.0 12.0 0.00 0.00 0.00 72 1011.9
20260903041011 62 251 5.0 12.0 0.00 0.00 0.00 69 1011.7
20260903035010 62 256 6.0 16.0 0.00 0.00 0.00 70 1011.6
20260903034012 61 251 7.0 18.0 0.00 0.00 0.00 71 1011.6
20260903033011 61 265 9.0 18.0 0.00 0.00 0.00 71 1011.5
20260903032011 61 283 6.0 15.0 0.00 0.00 0.00 74 1011.4
20260903031011 60 267 8.0 15.0 0.00 0.00 0.00 73 1011.3
20260903030010 60 274 11.0 18.0 0.00 0.00 0.00 74 1011.4
20260903024011 59 276 7.0 18.0 0.00 0.00 0.00 75 1011.4
20260903023010 59 266 8.0 16.0 0.00 0.00 0.00 75 1011.3
20260903021011 58 283 5.0 17.0 0.00 0.00 0.00 77 1011.0
20260903020011 57 275 9.0 16.0 0.00 0.00 0.00 77 1010.9
20260903015011 57 284 10.0 16.0 0.00 0.00 0.00 80 1010.8
20260903014011 57 281 7.0 17.0 0.00 0.00 0.00 83 1010.9
20260903013011 57 281 9.0 16.0 0.00 0.00 0.00 84 1010.9
20260903012011 57 289 7.0 16.0 0.00 0.00 0.00 84 1010.8
20260903010011 56 316 7.0 16.0 0.00 0.00 0.00 86 1010.8
20260903005012 55 297 9.0 17.0 0.00 0.00 0.00 86 1010.7
20260903004011 55 294 8.0 18.0 0.00 0.00 0.00 86 1010.7
20260903003012 55 294 10.0 17.0 0.00 0.00 0.00 85 1010.6
20260903002011 55 287 10.0 20.0 0.00 0.00 0.00 84 1010.5
20260903001011 56 284 10.0 22.0 0.00 0.00 0.00 80 1010.4
20260903000011 57 287 12.0 28.0 0.00 0.00 0.00 76 1010.2
20260902235011 58 282 13.0 22.0 0.00 0.00 0.00 73 1009.8
20260902234011 57 298 9.0 23.0 0.00 0.00 0.00 73 1009.6
20260902232011 57 294 8.0 18.0 0.00 0.00 0.00 75 1009.4
20260902231010 56 310 8.0 18.0 0.00 0.00 0.00 75 1009.3
20260902230011 56 320 11.0 20.0 0.00 0.00 0.00 75 1009.2
20260902225010 56 302 6.0 20.0 0.00 0.00 0.00 75 1008.9
20260902224011 56 290 8.0 20.0 0.00 0.00 0.00 74 1008.9
20260902222011 54 329 5.0 12.0 0.00 0.00 0.00 75 1008.9
20260902221011 54 335 4.0 12.0 0.00 0.00 0.00 75 1008.9
20260902220010 53 318 5.0 13.0 0.00 0.00 0.00 75 1008.6
20260902215011 53 0 4.0 12.0 0.00 0.00 0.00 74 1008.3
20260902213010 53 327 6.0 12.0 0.00 0.00 0.00 73 1008.4
20260902212011 53 325 5.0 12.0 0.00 0.00 0.00 74 1008.5
20260902211011 53 304 7.0 12.0 0.00 0.00 0.00 74 1008.4
20260902210010 53 301 6.0 14.0 0.00 0.00 0.00 73 1008.3
20260902205011 53 314 7.0 13.0 0.00 0.00 0.00 72 1007.9
20260902204014 53 318 7.0 15.0 0.00 0.00 0.00 72 1007.6
20260902203010 53 315 6.0 16.0 0.00 0.00 0.00 72 1007.7
20260902202011 54 305 7.0 16.0 0.00 0.00 0.00 71 1007.7
20260902201011 53 319 6.0 14.0 0.00 0.00 0.00 72 1007.6
20260902194011 52 303 5.0 12.0 0.00 0.00 0.00 74 1007.9
20260902193011 52 313 5.0 12.0 0.00 0.00 0.00 75 1007.8
20260902192012 51 341 3.0 12.0 0.00 0.00 0.00 75 1007.7
20260902191011 51 333 5.0 9.0 0.00 0.00 0.00 75 1007.8
20260902190011 51 323 3.0 8.0 0.00 0.00 0.00 74 1007.8
20260902185011 52 335 4.0 14.0 0.00 0.00 0.00 74 1007.6
20260902184011 52 342 5.0 12.0 0.00 0.00 0.00 74 1007.5
20260902183011 52 336 5.0 12.0 0.00 0.00 0.00 74 1007.5
20260902182012 52 339 3.0 14.0 0.00 0.00 0.00 75 1007.5
20260902181010 51 335 4.0 12.0 0.00 0.00 0.00 76 1007.6
20260902175011 51 325 3.0 9.0 0.00 0.00 0.00 77 1007.9
20260902174011 51 329 3.0 9.0 0.00 0.00 0.00 77 1007.8
20260902173011 51 331 4.0 8.0 0.00 0.00 0.00 76 1008.0
20260902171011 52 338 3.0 6.0 0.00 0.00 0.00 75 1008.0
20260902170012 52 338 3.0 9.0 0.00 0.00 0.00 75 1008.3
20260902165011 52 340 4.0 9.0 0.00 0.00 0.00 76 1008.5
20260902164012 52 316 5.0 12.0 0.00 0.00 0.00 77 1008.7
20260902163011 51 298 8.0 15.0 0.00 0.00 0.00 78 1008.7
20260902162011 51 292 8.0 14.0 0.00 0.00 0.00 78 1008.7
20260902161010 50 320 5.0 10.0 0.00 0.00 0.00 79 1008.7
20260902154011 50 348 2.0 5.0 0.00 0.00 0.00 77 1008.8